Lincoln, NE

1:29 AM CDT on June 25, 2018 (GMT -0500)
Lincoln Municipal

Weather History for KLNK - September, 2017

Change the Weather History Date:

Thursday, September 14, 2017

  Actual Average Record
Temperature  
Mean Temperature 80 °F 67 °F  
Max Temperature 95 °F 80 °F 99 °F (1939)
Min Temperature 64 °F 54 °F 34 °F (1890)
Degree Days  
Heating Degree Days 0 2  
Month to date heating degree days 13 19  
Since 1 July heating degree days 13 25  
Cooling Degree Days 15 4  
Month to date cooling degree days 92 81  
Year to date cooling degree days 1122 1116  
Growing Degree Days 30 (Base 50)    
Moisture  
Dew Point 55 °F    
Average Humidity 48    
Maximum Humidity 73    
Minimum Humidity 23    
Precipitation  
Precipitation 0.00 in 0.11 in 2.28 in (1906)
Month to date precipitation 0.01 1.53  
Year to date precipitation 29.84 23.11  
Snow  
Snow 0.00 in 0.00 in - ()
Month to date snowfall 0.0 0.0  
Since 1 July snowfall 0.0 0.0  
Snow Depth 0.00 in    
Sea Level Pressure  
Sea Level Pressure 29.69 in    
Wind  
Wind Speed 14 mph (South)    
Max Wind Speed 28 mph    
Max Gust Speed 38 mph    
Visibility 10 miles    
Events Thunderstorm    
T = Trace of Precipitation, MM = Missing Value Source: NWS Daily Summary

Daily Weather History Graph

Daily Weather History Graph

Search for Another Location

Airport or City:

Astronomy

Sep. 14, 2017 Rise Set
Actual Time 7:06 AM CDT 7:37 PM CDT
Civil Twilight 6:39 AM CDT 8:04 PM CDT
Nautical Twilight 6:06 AM CDT 8:37 PM CDT
Astronomical Twilight 5:33 AM CDT 9:10 PM CDT
Moon 1:02 AM CDT (9/14) 3:57 PM CDT (9/14)
Length of Visible Light 13h 25m
Length of Day
12h 30m
Waning Crescent, 34% of the Moon is Illuminated
Sep 14
Waning Crescent
Sep 20
New
Sep 27
First Quarter
Oct 5
Full
Oct 12
Last Quarter

Hourly Weather History & Observations

Time (CDT) Temp. Heat Index Dew Point Humidity Pressure Visibility Wind Dir Wind Speed Gust Speed Precip Events Conditions
12:54 AM 70.0 °F - 57.9 °F 65% 29.70 in 10.0 mi South 6.9 mph - N/A   Scattered Clouds
1:49 AM 71.6 °F - 57.2 °F 60% 29.73 in 10.0 mi South 10.4 mph - N/A Thunderstorm Thunderstorm
1:54 AM 71.1 °F - 57.9 °F 63% 29.70 in 10.0 mi South 9.2 mph - N/A Thunderstorm Thunderstorm
2:04 AM 71.1 °F - 59.0 °F 66% 29.74 in 10.0 mi South 6.9 mph - N/A   Mostly Cloudy
2:54 AM 71.1 °F - 57.9 °F 63% 29.71 in 10.0 mi SSE 8.1 mph - N/A   Mostly Cloudy
3:54 AM 71.1 °F - 57.0 °F 61% 29.71 in 10.0 mi SE 6.9 mph - N/A   Scattered Clouds
4:54 AM 68.0 °F - 55.0 °F 63% 29.70 in 10.0 mi SSE 10.4 mph - N/A   Clear
5:54 AM 66.0 °F - 55.9 °F 70% 29.70 in 10.0 mi SSE 10.4 mph - N/A   Clear
6:54 AM 64.9 °F - 55.9 °F 73% 29.71 in 10.0 mi South 8.1 mph - N/A   Clear
7:54 AM 70.0 °F - 54.0 °F 57% 29.70 in 10.0 mi South 15.0 mph - N/A   Clear
8:54 AM 73.9 °F - 55.0 °F 52% 29.71 in 10.0 mi SSW 13.8 mph - N/A   Clear
9:54 AM 78.1 °F - 55.9 °F 46% 29.70 in 10.0 mi South 12.7 mph - N/A   Clear
10:54 AM 82.9 °F 82.0 °F 55.0 °F 38% 29.69 in 10.0 mi SSW 18.4 mph 26.5 mph N/A   Clear
11:54 AM 89.1 °F 87.3 °F 55.9 °F 32% 29.68 in 10.0 mi SSW 18.4 mph 26.5 mph N/A   Clear
12:54 PM 93.0 °F 90.8 °F 54.0 °F 27% 29.68 in 10.0 mi SSW 24.2 mph 34.5 mph N/A   Clear
1:54 PM 91.0 °F 88.5 °F 53.1 °F 27% 29.66 in 10.0 mi SSW 24.2 mph 38.0 mph N/A   Clear
2:54 PM 93.9 °F - 52.0 °F 24% 29.65 in 10.0 mi SSW 23.0 mph 29.9 mph N/A   Clear
3:54 PM 95.0 °F - 51.1 °F 22% 29.63 in 10.0 mi SSW 21.9 mph 28.8 mph N/A   Clear
4:54 PM 93.9 °F - 51.1 °F 23% 29.63 in 10.0 mi SSW 20.7 mph 28.8 mph N/A   Clear
5:54 PM 93.0 °F 90.8 °F 54.0 °F 27% 29.64 in 10.0 mi South 15.0 mph - N/A   Clear
6:54 PM 87.1 °F 85.3 °F 55.0 °F 33% 29.65 in 10.0 mi South 10.4 mph - N/A   Clear
7:54 PM 81.0 °F 80.7 °F 55.0 °F 41% 29.66 in 10.0 mi SSE 10.4 mph - N/A   Clear
8:54 PM 80.1 °F 79.9 °F 53.1 °F 39% 29.68 in 10.0 mi South 12.7 mph 21.9 mph N/A   Clear
9:54 PM 78.1 °F - 54.0 °F 43% 29.68 in 10.0 mi South 13.8 mph - N/A   Clear
10:54 PM 75.9 °F - 55.0 °F 48% 29.70 in 10.0 mi South 10.4 mph - N/A   Clear
11:54 PM 75.0 °F - 55.9 °F 51% 29.70 in 10.0 mi South 11.5 mph - N/A   Clear